Вернуться в каталог

STARLINK-4409

АктивенСвязьSSO
NORAD 53203·PAYLOAD·🇺🇸 United States

Запущен Jul 22, 2022 с Vandenberg Space Force Base

Loading…

Ближайшие Пролёты (ближайшие 24 часа)

TLE

СвежийSource: CelesTrak SupGP

Эпоха: Sep 15, 2026, 02:22 UTC

1 53203C 22084Q   26258.09909722  .00053168  00000+0  16505-2 0  2589
2 53203  97.2836 313.9328 0001538  85.4927 279.0161 15.33412373    10

Отслеживайте STARLINK-4409 в реальном времени с AllMySat

Download on the App Store